Regional Weather Roundup
Issued by NWS

Home | Current Version | Previous Version | Graphics & Text | Print | Product List | Glossary On
Versions: 1 2 3 4 5 6 7 8 9 10 11 12 13 14 15 16 17 18 19 20 21 22 23 24 25 26 27 28 29 30 31 32 33 34 35 36 37 38 39 40 41 42 43 44 45 46 47 48 49 50
000
ASUS43 KBIS 031610
RWRND

NORTH DAKOTA REGIONAL WEATHER ROUNDUP
NATIONAL WEATHER SERVICE BISMARCK ND
1100 AM CDT THU SEP 03 2015

NOTE: "FAIR" INDICATES FEW OR NO CLOUDS BELOW 12,000 FEET WITH NO
SIGNIFICANT WEATHER AND/OR OBSTRUCTIONS TO VISIBILITY.


NDZ001>003-009>011-017-031700-
NORTHWEST NORTH DAKOTA

CITY           SKY/WX    TMP DP  RH WIND       PRES   REMARKS
WILLISTON      MOSUNNY   76  59  55 NE10      29.68F
MINOT          MOSUNNY   78  68  71 SE14      29.66F
MINOT AFB      PTSUNNY   78  77  96 SE10      29.65S
$$

NDZ018>021-031>035-040>046-031700-
SOUTHWEST NORTH DAKOTA

CITY           SKY/WX    TMP DP  RH WIND       PRES   REMARKS
BISMARCK       MOSUNNY   82  65  56 S8        29.70S
DICKINSON      SUNNY     83  47  28 W6        29.69R
GARRISON         N/A     78  67  68 S10       29.68S
HETTINGER ARPT MOSUNNY   83  48  29 SW7       29.74R
$$

NDZ004>008-012>016-024-026-027-054-031700-
NORTHEAST NORTH DAKOTA

CITY           SKY/WX    TMP DP  RH WIND       PRES   REMARKS
GRAND FORKS    CLOUDY    77  70  79 S17G30    29.76F
GRND FRKS AFB  CLOUDY    74  70  87 S16       29.76F
DEVILS LAKE    CLOUDY    73  64  73 SE15      29.72S
$$

NDZ022-023-025-028>030-036>039-047>053-031700-
SOUTHEAST NORTH DAKOTA

CITY           SKY/WX    TMP DP  RH WIND       PRES   REMARKS
FARGO          SUNNY     81  71  71 SE17G28   29.79S
JAMESTOWN      SUNNY     80  70  71 S14       29.74S
$$




USA.gov is the U.S. government's official web portal to all federal, state and local government web resources and services.